EW5206 Weather Reports


Display with metric or nautical units.
time (UTC)temp
F
wind
direction
speed
MPH
gust
MPH
rain 1hr
in
rain 24hr
in
rain mn
in
humidity
%
barometer
mb
20260831131504 77 0.0 0.0 0.00 0.00 0.00 80 1020.0
20260831130113 74 0.0 0.0 0.00 0.00 0.00 86 1020.1
20260831124556 72 0.0 0.0 0.00 0.00 0.00 91 1020.0
20260831123051 69 0.0 0.0 0.00 0.00 0.00 97 1020.0
20260831121550 67 0.0 0.0 0.00 0.00 0.00 98 1020.0
20260831120049 66 0.0 0.0 0.00 0.00 0.00 97 1019.9
20260831114547 65 0.0 0.0 0.00 0.00 0.00 97 1019.9
20260831113047 65 0.0 0.0 0.00 0.00 0.00 97 1019.7
20260831111547 65 0.0 0.0 0.00 0.00 0.00 96 1019.5
20260831110047 65 0.0 0.0 0.00 0.00 0.00 96 1019.4
20260831104545 65 0.0 0.0 0.00 0.00 0.00 96 1019.2
20260831103045 65 0.0 0.0 0.00 0.00 0.00 96 1019.1
20260831101544 65 0.0 0.0 0.00 0.00 0.00 96 1019.1
20260831100043 65 0.0 0.0 0.00 0.00 0.00 95 1019.1
20260831094541 66 0.0 0.0 0.00 0.00 0.00 95 1019.1
20260831093043 66 0.0 0.0 0.00 0.00 0.00 96 1018.9
20260831091540 66 0.0 0.0 0.00 0.00 0.00 96 1018.9
20260831090040 66 0.0 0.0 0.00 0.00 0.00 96 1018.9
20260831084537 66 0.0 0.0 0.00 0.00 0.00 95 1019.0
20260831083041 66 0.0 0.0 0.00 0.00 0.00 95 1019.0
20260831081538 66 0.0 0.0 0.00 0.00 0.00 95 1019.0
20260831080035 67 0.0 0.0 0.00 0.00 0.00 95 1019.1
20260831074534 67 0.0 0.0 0.00 0.00 0.00 95 1019.0
20260831073034 67 0.0 0.0 0.00 0.00 0.00 94 1019.0
20260831071534 67 0.0 0.0 0.00 0.00 0.00 94 1018.9
20260831070032 67 0.0 0.0 0.00 0.00 0.00 94 1018.8
20260831064530 67 0.0 0.0 0.00 0.00 0.00 93 1018.9
20260831063028 67 0.0 0.0 0.00 0.00 0.00 93 1018.9
20260831061526 68 0.0 0.0 0.00 0.00 0.00 93 1019.1
20260831060025 68 0.0 0.0 0.00 0.00 0.00 92 1019.2
20260831054523 68 0.0 0.0 0.00 0.00 0.00 91 1019.2
20260831053021 68 0.0 0.0 0.00 0.00 0.00 90 1019.4
20260831051524 69 0.0 0.0 0.00 0.00 0.00 89 1019.5
20260831050021 69 0.0 0.0 0.00 0.00 0.00 88 1019.6
20260831034538 70 0.0 0.0 0.00 0.00 0.00 85 1019.9
20260831033038 71 0.0 0.0 0.00 0.00 0.00 84 1020.0
20260831031538 71 0.0 0.0 0.00 0.00 0.00 83 1019.9
20260831030037 72 0.0 0.0 0.00 0.00 0.00 83 1019.8
20260831024547 72 0.0 0.0 0.00 0.00 0.00 82 1019.7
20260831023036 73 0.0 0.0 0.00 0.00 0.00 81 1019.8
20260831021546 73 0.0 0.0 0.00 0.00 0.00 81 1019.8
20260831020035 73 0.0 0.0 0.00 0.00 0.00 82 1019.7
20260831014534 73 0.0 0.0 0.00 0.00 0.00 81 1019.8
20260831013034 73 0.0 0.0 0.00 0.00 0.00 80 1019.8
20260831011544 74 0.0 0.0 0.00 0.00 0.00 79 1019.5
20260831010036 75 0.0 0.0 0.00 0.00 0.00 77 1019.2
20260831004532 76 0.0 0.0 0.00 0.00 0.00 75 1019.1
20260831003036 76 0.0 0.0 0.00 0.00 0.00 74 1018.9
20260831001533 77 0.0 0.0 0.00 0.00 0.00 72 1018.9
20260831000033 78 0.0 0.0 0.00 0.00 0.00 69 1018.9
20260830234530 79 0.0 0.0 0.00 0.00 0.00 68 1018.9
20260830233034 79 0.0 0.0 0.00 0.00 0.00 65 1018.8
20260830231529 80 0.0 0.0 0.00 0.00 0.00 65 1018.7
20260830230029 81 0.0 0.0 0.00 0.00 0.00 65 1018.6
20260830224529 81 0.0 0.0 0.00 0.00 0.00 63 1018.6
20260830223027 82 0.0 0.0 0.00 0.00 0.00 62 1018.6
20260830221527 82 0.0 0.0 0.00 0.00 0.00 60 1018.7
20260830220027 82 0.0 0.0 0.00 0.00 0.00 60 1018.7
20260830214526 83 0.0 0.0 0.00 0.00 0.00 58 1018.6
20260830213034 83 0.0 0.0 0.00 0.00 0.00 59 1018.7
20260830211525 83 0.0 0.0 0.00 0.00 0.00 56 1018.7
20260830210028 84 0.0 0.0 0.00 0.00 0.00 55 1018.8
20260830204524 84 0.0 0.0 0.00 0.00 0.00 56 1018.7
20260830203023 84 0.0 0.0 0.00 0.00 0.00 56 1018.9
20260830201521 85 0.0 0.0 0.00 0.00 0.00 55 1019.1
20260830200020 85 0.0 0.0 0.00 0.00 0.00 57 1019.0
20260830194521 85 0.0 0.0 0.00 0.00 0.00 58 1019.2
20260830193016 85 0.0 0.0 0.00 0.00 0.00 60 1019.4
20260830191519 86 0.0 0.0 0.00 0.00 0.00 56 1019.5
20260830190013 86 0.0 0.0 0.00 0.00 0.00 55 1019.8
20260830184518 86 0.0 0.0 0.00 0.00 0.00 58 1019.9
20260830183010 86 0.0 0.0 0.00 0.00 0.00 54 1020.1
20260830181508 86 0.0 0.0 0.00 0.00 0.00 56 1020.5
20260830180007 86 0.0 0.0 0.00 0.00 0.00 54 1020.8
20260830174505 88 0.0 0.0 0.00 0.00 0.00 53 1021.0
20260830173002 89 0.0 0.0 0.00 0.00 0.00 53 1021.3
20260830171637 89 0.0 0.0 0.00 0.00 0.00 55 1021.5
20260830170057 88 0.0 0.0 0.00 0.00 0.00 57 1021.9
20260830164557 87 0.0 0.0 0.00 0.00 0.00 56 1022.3
20260830163055 87 0.0 0.0 0.00 0.00 0.00 57 1022.3
20260830161554 86 0.0 0.0 0.00 0.00 0.00 60 1022.4
20260830160053 87 0.0 0.0 0.00 0.00 0.00 57 1022.4
20260830154548 85 0.0 0.0 0.00 0.00 0.00 63 1022.4
20260830153046 84 0.0 0.0 0.00 0.00 0.00 62 1022.5
20260830151550 83 0.0 0.0 0.00 0.00 0.00 65 1022.5
20260830150040 82 0.0 0.0 0.00 0.00 0.00 68 1022.5
20260830144542 79 0.0 0.0 0.00 0.00 0.00 73 1022.6
20260830143028 77 0.0 0.0 0.00 0.00 0.00 79 1022.5
20260830141526 74 0.0 0.0 0.00 0.00 0.00 84 1022.6
20260830140020 71 0.0 0.0 0.00 0.00 0.00 90 1022.7
20260830134531 70 0.0 0.0 0.00 0.00 0.00 93 1022.9
20260830133017 69 0.0 0.0 0.00 0.00 0.00 94 1023.0